Temperature
28 28 28 28 28 28 27 27 27 27 27 28 28 27 26 25 23 22 21 21 20 19 19 18 17 16 15 15 14 13 13 12 12 11 11 10 10 10 10 9 9 9 9 9
27 28 28 27 28 28 27 27 27 27 27 28 26 26 25 24 23 22 22 21 20 19 18 18 17 16 15 15 14 13 12 12 12 11 11 10 10 10 10 9 9 9 9 9
27 28 27 27 28 28 28 28 27 27 28 27 26 25 24 23 23 23 22 21 20 19 19 18 17 16 15 14 14 13 12 12 11 11 11 10 10 10 9 9 9 9 9 9
27 26 25 28 28 28 28 28 28 27 27 27 26 25 24 23 23 22 22 21 20 19 19 18 17 16 15 14 13 13 12 12 11 11 10 10 10 10 9 9 9 9 9 9
26 26 26 28 28 28 27 27 28 28 27 26 25 24 24 23 22 22 21 21 20 19 18 17 17 16 15 14 13 13 12 12 11 11 10 10 10 10 9 9 9 9 9 9
26 25 25 27 28 27 27 26 28 27 27 26 24 26 26 24 22 22 21 20 19 19 18 17 16 16 15 14 13 13 12 12 11 11 10 10 10 9 9 9 9 9 9 9
25 25 27 27 26 26 26 26 26 26 26 25 25 25 24 23 22 21 20 20 19 18 18 17 16 15 15 14 13 13 12 11 11 11 10 10 10 9 9 9 9 9 9 9
25 25 25 25 26 26 25 24 25 25 25 24 24 24 23 22 21 21 20 19 19 18 18 17 16 15 15 14 13 12 12 11 11 11 10 10 10 10 9 9 9 9 9 9
25 25 24 24 24 23 22 23 23 24 24 24 24 23 23 22 21 20 20 19 18 18 17 16 16 15 15 14 13 12 12 11 11 11 10 10 10 10 9 10 10 10 9 9
24 25 24 23 22 21 21 22 22 22 23 23 23 23 22 21 20 20 19 19 18 18 17 16 15 15 15 14 13 12 12 11 11 10 10 10 10 10 10 10 10 10 9 9
24 24 23 22 20 20 20 20 21 21 21 22 22 21 21 20 20 19 19 18 18 17 16 16 15 15 14 13 13 12 12 11 11 11 11 10 10 10 10 10 10 9 9 9
23 21 22 20 19 19 19 19 19 20 20 20 20 20 19 19 18 18 17 17 17 16 16 16 15 14 14 13 13 12 12 11 11 11 11 11 11 11 11 10 10 10 9 9
19 18 18 18 18 18 18 18 18 18 18 18 18 18 18 18 17 17 17 16 16 16 16 15 15 14 14 13 13 12 12 11 11 11 11 11 11 10 11 10 10 10 10 9
16 17 17 17 17 17 17 17 17 17 17 17 17 17 17 16 16 16 16 16 15 15 15 15 14 14 14 13 12 12 12 11 11 11 11 11 10 10 10 10 10 10 10 9
16 16 16 16 16 16 16 16 17 16 16 16 16 15 15 15 15 15 15 15 15 15 14 14 14 13 13 13 12 12 11 11 11 11 10 10 10 10 10 10 10 10 10 10
15 15 15 15 15 15 15 15 15 15 15 15 15 14 14 14 14 14 14 14 14 14 14 13 13 13 12 12 12 12 11 11 11 10 10 11 11 11 10 10 10 10 10 10
15 15 14 14 14 14 14 14 14 14 14 14 14 13 13 13 13 13 13 13 13 13 13 13 12 12 12 12 11 11 11 11 11 10 10 11 11 10 10 10 10 10 10 9
13 13 13 13 14 14 13 13 13 13 13 13 13 13 13 12 12 12 12 12 12 12 12 12 11 11 11 11 11 11 11 11 11 11 10 10 10 10 10 10 10 10 9 9
13 13 13 12 12 12 13 12 12 12 12 12 12 12 12 11 11 11 11 11 11 12 11 11 11 11 11 11 11 10 10 11 11 10 10 10 10 10 10 10 10 10 9 9
12 12 12 12 12 12 12 12 12 12 11 11 11 11 11 11 10 10 10 11 11 11 10 10 10 10 10 10 10 10 10 10 10 10 10 10 10 10 10 10 10 9 9 9
12 12 12 12 12 12 11 11 11 11 11 11 11 10 10 10 10 10 10 10 10 10 9 10 10 10 10 9 9 9 10 10 10 10 10 10 10 10 10 10 9 9 9 9
11 11 11 11 11 11 11 11 11 11 10 10 10 10 10 10 10 10 10 10 9 9 9 9 9 9 9 9 9 9 9 9 9 9 9 9 9 9 9 9 9 9 9 9
11 11 11 11 10 10 10 10 10 10 10 10 10 10 9 9 9 9 10 9 9 8 8 8 8 8 9 8 8 8 9 8 9 9 9 9 9 9 9 9 9 9 9 8
10 10 10 10 10 10 10 10 10 10 10 9 10 10 9 9 9 9 9 8 8 8 8 8 8 8 8 8 7 8 8 8 8 8 8 8 8 8 8 8 8 8 8 8
10 10 10 10 10 10 10 10 10 10 10 10 10 10 10 9 9 9 8 8 8 7 7 7 7 7 7 7 7 7 7 7 7 7 7 8 8 8 8 8 8 8 8 8
10 9 10 9 9 9 9 10 10 10 9 9 9 9 9 9 8 8 8 8 8 7 7 7 7 7 6 6 6 6 6 6 6 6 7 7 7 7 8 8 8 8 8 8
9 9 9 9 10 10 10 9 9 9 9 9 9 9 8 8 8 8 7 7 7 7 6 6 6 6 6 6 6 6 6 6 6 6 6 6 6 7 7 7 7 7 7 8
Wind_Speed
8 7 7 9 10 9 11 11 11 9 8 5 3 6 8 10 10 10 10 10 9 8 7 6 5 5 5 5 5 5 6 8 8 8 9 9 10 10 11 11 12 12 12 12
11 9 8 11 12 11 11 10 10 9 8 1 2 4 7 9 10 10 10 9 9 8 7 6 6 5 5 5 5 5 7 8 8 9 9 10 10 11 11 11 12 12 12 13
11 8 9 11 8 7 7 7 7 8 3 3 3 6 7 9 10 10 9 8 8 7 7 6 5 5 5 5 5 6 7 8 9 9 10 10 11 11 11 12 12 12 13 13
10 8 10 4 1 4 5 6 5 5 2 2 3 4 6 8 9 9 8 8 7 6 6 5 5 5 5 6 6 7 8 8 9 9 10 10 11 12 12 11 12 12 12 13
8 10 10 5 4 5 6 6 4 4 3 3 3 4 6 8 9 8 8 7 6 6 5 4 5 5 5 6 7 7 8 9 9 9 10 11 11 12 12 12 12 12 12 13
8 9 8 2 3 3 4 6 2 4 4 4 5 6 3 7 9 9 7 7 6 6 5 5 5 5 6 7 7 8 8 9 9 9 10 11 12 12 12 11 12 13 13 13
10 10 7 3 4 5 6 3 2 3 4 6 7 6 1 4 7 8 8 8 7 7 6 6 5 5 7 8 8 8 8 9 9 10 10 11 11 11 12 12 12 13 14 13
6 8 3 5 3 2 4 5 2 3 4 6 7 6 4 4 6 8 8 9 8 7 7 6 6 6 8 8 8 8 8 9 10 10 10 10 11 12 12 12 12 13 12 13
3 2 5 3 3 4 6 6 6 6 5 6 7 7 7 7 6 8 9 9 8 8 7 6 6 7 9 8 7 8 9 10 10 11 10 11 11 12 11 11 11 11 11 11
4 2 3 4 5 7 8 8 8 8 6 5 7 7 7 7 7 7 8 9 8 8 8 7 6 7 8 8 7 8 10 10 10 11 11 11 10 10 11 11 11 11 11 11
6 3 3 4 9 10 9 8 7 6 5 4 5 6 5 5 6 6 6 7 7 8 7 7 6 7 7 7 7 9 10 11 11 11 11 10 11 10 12 11 11 11 12 11
4 5 5 6 9 11 9 9 9 8 6 4 4 4 4 3 3 4 5 5 6 7 7 7 7 8 8 7 8 9 10 11 10 10 9 10 11 11 11 14 14 15 16 15
3 5 4 5 8 10 9 9 9 9 8 7 6 5 4 3 2 2 2 3 5 7 7 7 8 8 8 8 8 10 11 11 10 11 10 10 11 12 12 11 13 16 17 17
3 3 5 8 8 10 10 10 10 10 10 9 8 7 6 5 4 3 3 3 5 7 7 8 9 9 8 8 9 10 12 11 11 11 11 11 11 11 11 12 12 11 9 14
9 9 8 8 10 11 11 11 11 12 11 11 9 9 8 7 6 5 5 5 6 7 7 8 9 10 8 8 10 11 11 10 9 10 10 11 11 11 11 12 11 10 10 6
9 10 10 11 12 12 13 13 12 12 12 11 10 10 9 8 8 7 7 7 7 9 9 10 10 10 9 9 10 10 11 12 10 10 11 11 10 11 11 11 10 10 10 9
9 10 10 10 11 11 12 12 11 11 11 11 11 11 10 10 9 9 10 10 9 10 11 11 11 10 10 11 11 10 10 9 9 10 11 11 10 10 10 10 10 10 9 7
9 9 9 9 9 9 10 11 11 11 11 11 11 11 11 11 11 11 11 12 11 12 11 11 11 12 12 11 10 10 10 10 9 10 10 10 9 10 10 11 10 10 9 7
8 7 7 7 8 8 8 9 9 9 10 10 11 11 11 12 12 12 13 13 13 13 12 13 12 13 13 11 9 10 11 11 10 9 9 8 9 10 10 10 9 9 8 7
6 6 7 7 7 8 8 9 9 9 9 10 10 11 11 12 13 13 14 13 11 12 14 14 15 13 12 10 8 10 11 11 10 9 9 9 9 9 9 9 8 8 8 7
5 7 8 8 8 9 9 10 10 10 10 10 10 11 12 13 13 13 14 14 13 12 14 14 12 11 10 9 7 10 10 9 9 9 8 8 8 9 9 8 7 7 7 7
6 8 9 10 10 11 10 10 11 11 11 11 11 12 13 14 14 14 14 12 13 12 13 14 12 11 11 10 9 9 9 9 8 7 7 7 8 8 8 7 7 6 6 6
8 9 10 11 11 12 12 12 12 11 11 12 12 13 13 13 13 13 14 12 13 14 14 13 11 10 11 10 9 8 8 8 8 7 7 7 7 6 6 7 6 6 6 5
10 10 11 12 12 13 13 13 13 11 12 13 13 12 13 13 12 12 13 13 13 13 14 11 8 9 11 9 8 7 7 6 7 7 7 6 5 5 5 5 5 5 5 6
12 12 13 13 13 12 13 13 13 13 13 12 13 13 12 11 13 13 13 15 14 14 14 11 6 7 8 7 6 6 6 5 5 6 6 5 5 5 4 4 4 4 5 5
13 13 13 13 13 12 13 12 12 11 12 12 12 12 12 12 13 13 12 14 16 13 13 11 9 7 7 6 5 5 5 4 4 4 4 5 5 5 4 4 5 4 4 4
14 13 12 12 12 12 12 12 12 12 12 13 14 13 14 14 13 13 14 13 13 12 11 10 8 7 6 4 4 4 4 4 4 4 4 4 5 4 4 4 3 4 4 4
Wind_Direction
274 278 272 273 271 253 250 268 281 291 295 292 229 206 196 190 186 187 190 194 198 203 204 212 222 234 249 265 271 277 282 286 289 292 292 291 289 288 288 287 286 284 282 279
266 260 264 270 269 263 253 256 264 276 283 323 164 179 181 189 190 195 199 202 202 205 210 218 228 241 253 264 272 273 278 285 292 294 293 292 291 289 288 287 286 285 282 281
268 264 267 264 258 249 238 238 255 271 300 129 181 192 195 194 200 207 208 207 207 211 216 224 233 243 255 266 272 274 279 285 289 292 293 294 294 293 292 292 289 286 285 284
263 261 257 274 133 253 254 252 249 268 265 212 220 205 201 201 207 212 211 210 210 215 218 223 228 236 250 266 270 274 280 284 289 292 293 294 293 293 293 292 291 289 288 287
253 250 252 238 202 220 237 253 235 243 240 196 171 202 211 205 211 215 213 210 210 216 220 222 231 239 250 265 272 277 281 285 289 293 293 293 293 295 296 294 291 290 288 285
240 257 261 259 124 171 240 251 198 210 222 195 190 248 250 176 198 210 208 200 201 204 211 216 231 238 248 264 274 280 286 289 291 290 289 290 293 295 295 292 288 289 288 286
243 250 255 54 123 183 239 332 46 223 224 205 219 264 16 162 191 202 202 199 198 205 214 220 225 231 248 266 276 284 288 289 288 287 286 286 289 290 291 290 289 289 289 287
238 246 254 74 157 233 344 358 329 276 248 234 238 242 216 200 198 201 203 203 202 206 215 216 218 229 249 264 277 283 283 284 286 287 288 290 289 288 289 288 287 285 286 287
279 325 51 27 334 341 338 320 314 294 274 251 247 242 230 222 215 211 209 207 206 211 217 218 220 232 251 265 274 278 279 282 286 288 288 286 286 287 287 284 285 290 292 293
263 264 12 15 2 347 333 314 306 299 289 270 257 255 244 231 224 220 216 211 209 213 221 227 230 237 249 261 267 272 277 282 286 286 286 286 285 285 289 293 294 294 294 294
258 294 320 29 15 359 351 345 334 321 308 297 280 278 272 254 244 237 231 224 216 219 228 235 239 245 251 254 259 268 275 280 283 284 286 288 285 283 285 288 290 289 293 294
312 5 336 352 1 358 3 7 6 2 0 356 337 319 309 293 275 257 246 235 227 229 236 243 246 250 251 252 253 262 272 277 282 286 289 288 291 290 262 252 260 251 251 262
322 343 8 12 14 14 20 24 27 28 26 22 18 8 2 354 338 298 260 241 240 244 247 248 251 254 255 252 250 254 265 276 283 287 289 288 291 293 297 284 248 242 242 243
48 82 62 40 32 27 28 32 37 38 35 32 26 21 14 7 359 341 310 283 270 267 263 261 261 260 259 253 250 255 263 268 268 277 281 285 288 289 290 295 302 302 263 231
69 72 72 58 47 40 35 34 35 32 28 26 24 19 10 0 353 344 332 319 301 286 281 278 275 275 271 260 254 257 263 269 273 280 283 283 285 286 287 289 293 298 305 280
85 76 66 56 46 38 33 30 28 24 21 18 15 12 6 359 353 350 346 336 321 308 301 292 285 284 279 266 259 258 258 254 259 276 280 280 281 285 289 293 295 299 302 307
81 64 51 42 36 32 28 25 20 15 12 11 7 3 1 360 356 353 347 340 325 310 302 296 293 294 283 269 262 264 268 261 235 258 271 277 283 288 292 293 295 300 303 309
71 60 45 32 24 19 15 13 11 8 4 360 357 357 355 354 349 344 338 330 322 313 308 307 307 299 285 272 264 266 268 269 267 271 278 280 287 289 290 292 297 300 302 304
58 44 31 20 9 3 360 357 356 354 351 351 349 348 345 343 340 334 331 325 318 314 322 322 316 297 287 279 269 262 264 267 268 271 273 275 276 279 285 292 298 304 303 307
37 21 10 2 356 348 343 341 338 337 339 340 339 337 337 336 333 329 325 315 317 323 324 323 313 301 292 283 265 266 265 266 269 273 276 279 282 287 290 295 301 306 305 304
2 354 350 345 338 333 331 329 326 325 326 327 327 327 328 328 327 325 321 318 324 332 326 313 306 307 301 302 271 268 268 269 270 273 278 281 286 290 295 302 307 308 309 311
338 336 334 331 327 323 322 317 313 313 314 315 317 321 322 322 322 321 317 317 322 338 327 317 317 329 320 302 276 272 273 270 270 274 279 282 286 292 299 302 305 307 311 316
316 318 318 318 317 313 308 305 303 304 305 307 309 312 316 317 316 314 315 325 325 331 320 313 325 324 306 286 276 276 275 273 274 275 276 279 285 292 296 301 307 310 317 327
303 305 307 307 306 302 299 301 302 299 296 295 296 302 306 307 309 313 317 321 322 320 315 319 314 304 289 284 283 280 280 281 282 284 285 287 291 294 300 308 315 322 331 334
295 296 296 298 296 296 298 296 293 289 289 293 297 301 303 309 312 314 315 316 319 315 317 319 306 295 292 295 291 291 290 298 305 302 297 302 302 302 308 314 322 326 333 338
290 288 291 291 291 291 292 292 293 297 299 300 301 304 308 310 310 311 310 312 316 318 315 315 318 308 303 304 306 309 309 310 307 304 314 314 310 314 317 324 329 328 329 338
285 283 278 277 280 284 290 292 292 294 296 297 301 305 306 306 306 309 310 310 314 317 318 318 318 314 312 319 328 327 329 334 330 323 322 318 316 317 316 320 329 327 326 346
Height
1484 1482 1484 1486 1485 1485 1489 1488 1491 1487 1486 1483 1484 1488 1492 1497 1501 1504 1507 1509 1511 1513 1514 1514 1515 1515 1514 1514 1513 1511 1510 1509 1507 1505 1503 1500 1498 1496 1494 1491 1489 1487 1484 1482
1487 1481 1482 1484 1481 1481 1482 1483 1484 1484 1483 1480 1485 1488 1492 1495 1498 1501 1504 1506 1508 1509 1510 1511 1511 1511 1511 1510 1509 1508 1506 1505 1503 1501 1499 1497 1494 1492 1489 1486 1484 1482 1479 1477
1488 1479 1483 1486 1476 1476 1478 1477 1479 1482 1480 1482 1485 1488 1491 1493 1496 1498 1500 1503 1505 1506 1507 1508 1508 1508 1507 1507 1505 1504 1502 1501 1499 1497 1495 1492 1490 1487 1485 1482 1479 1476 1474 1472
1484 1486 1499 1477 1470 1471 1474 1474 1475 1477 1478 1481 1484 1487 1489 1491 1493 1495 1498 1500 1501 1503 1504 1504 1504 1504 1503 1503 1502 1500 1499 1497 1495 1493 1490 1488 1485 1483 1480 1477 1474 1471 1468 1466
1483 1486 1482 1471 1469 1471 1474 1474 1472 1474 1477 1480 1483 1485 1486 1488 1490 1493 1495 1497 1498 1500 1501 1501 1501 1501 1500 1499 1498 1497 1495 1493 1491 1488 1486 1483 1481 1478 1475 1472 1469 1466 1463 1460
1482 1488 1488 1472 1467 1470 1473 1476 1470 1473 1475 1478 1482 1480 1479 1484 1487 1489 1492 1493 1494 1496 1496 1496 1497 1496 1496 1495 1494 1493 1491 1489 1487 1484 1481 1479 1476 1473 1470 1467 1464 1461 1458 1455
1480 1482 1472 1466 1469 1472 1480 1477 1472 1473 1475 1477 1478 1479 1481 1482 1484 1486 1488 1489 1490 1491 1492 1492 1492 1492 1491 1491 1490 1489 1487 1485 1482 1479 1477 1474 1471 1468 1465 1462 1459 1455 1452 1449
1476 1482 1477 1470 1470 1472 1475 1474 1473 1474 1474 1476 1477 1478 1479 1481 1482 1483 1484 1485 1486 1487 1488 1488 1488 1488 1487 1487 1486 1484 1482 1480 1478 1475 1473 1470 1467 1463 1460 1457 1454 1450 1446 1443
1471 1473 1474 1474 1474 1476 1476 1475 1475 1474 1474 1474 1474 1475 1476 1478 1479 1479 1480 1481 1482 1483 1484 1484 1484 1483 1483 1482 1481 1479 1478 1475 1473 1470 1468 1465 1462 1459 1456 1453 1449 1446 1442 1438
1472 1469 1473 1475 1476 1476 1476 1475 1474 1473 1472 1472 1472 1472 1473 1474 1475 1476 1476 1477 1478 1479 1480 1480 1480 1479 1478 1477 1476 1475 1473 1471 1468 1466 1463 1461 1457 1455 1452 1448 1445 1441 1437 1434
1471 1472 1473 1474 1476 1476 1475 1473 1472 1471 1470 1470 1469 1469 1470 1471 1471 1472 1473 1474 1474 1475 1475 1476 1476 1475 1474 1473 1471 1470 1468 1466 1464 1461 1459 1455 1452 1450 1446 1443 1440 1436 1432 1429
1472 1477 1477 1478 1478 1476 1474 1472 1471 1470 1469 1468 1468 1467 1468 1468 1468 1469 1469 1470 1470 1471 1471 1471 1471 1470 1469 1468 1466 1464 1463 1461 1459 1457 1454 1451 1448 1444 1440 1437 1434 1430 1426 1423
1480 1479 1480 1480 1478 1477 1475 1473 1471 1469 1468 1467 1467 1466 1466 1466 1465 1465 1465 1466 1467 1467 1467 1466 1466 1465 1464 1462 1460 1459 1457 1455 1454 1451 1448 1446 1443 1439 1436 1432 1429 1424 1421 1417
1480 1480 1480 1480 1479 1477 1476 1474 1472 1470 1469 1468 1467 1466 1465 1464 1463 1463 1463 1463 1463 1463 1462 1462 1461 1459 1458 1457 1455 1453 1451 1450 1448 1445 1443 1440 1437 1434 1431 1427 1424 1420 1416 1412
1482 1481 1482 1482 1480 1478 1477 1475 1473 1471 1470 1468 1467 1466 1465 1464 1463 1462 1461 1461 1460 1459 1458 1457 1456 1454 1453 1451 1449 1447 1445 1444 1442 1440 1437 1435 1432 1429 1426 1422 1418 1415 1411 1408
1484 1484 1483 1482 1481 1479 1478 1476 1474 1473 1471 1470 1468 1466 1465 1464 1462 1461 1459 1458 1457 1456 1454 1453 1451 1449 1447 1445 1442 1441 1439 1437 1435 1433 1432 1429 1427 1424 1421 1417 1414 1410 1407 1404
1485 1485 1484 1483 1482 1481 1479 1478 1476 1474 1473 1471 1469 1467 1464 1462 1460 1459 1457 1455 1453 1452 1450 1448 1446 1443 1441 1439 1437 1435 1434 1432 1429 1427 1426 1424 1421 1419 1416 1413 1409 1406 1403 1399
1486 1486 1485 1485 1483 1482 1480 1479 1477 1475 1473 1471 1469 1466 1464 1461 1459 1456 1454 1452 1449 1447 1445 1443 1440 1437 1435 1433 1430 1429 1428 1426 1424 1422 1421 1419 1416 1414 1411 1408 1405 1402 1399 1395
1487 1486 1485 1484 1483 1482 1480 1478 1476 1474 1472 1470 1468 1465 1463 1461 1458 1455 1452 1449 1446 1443 1441 1438 1434 1431 1429 1427 1424 1422 1421 1420 1418 1417 1415 1413 1411 1409 1406 1404 1401 1398 1395 1392
1487 1486 1485 1484 1482 1481 1479 1477 1475 1473 1471 1468 1466 1464 1461 1459 1456 1452 1449 1446 1443 1440 1437 1433 1429 1426 1423 1420 1418 1417 1415 1414 1413 1411 1410 1408 1406 1404 1402 1400 1397 1394 1391 1388
1486 1485 1484 1482 1481 1479 1477 1475 1473 1471 1468 1466 1464 1461 1459 1456 1453 1449 1446 1442 1439 1436 1431 1427 1424 1421 1418 1415 1412 1411 1410 1409 1407 1406 1405 1403 1402 1400 1398 1396 1393 1390 1388 1385
1484 1483 1482 1480 1478 1476 1474 1472 1470 1468 1466 1463 1461 1458 1455 1452 1449 1446 1442 1439 1435 1431 1427 1423 1420 1416 1412 1409 1407 1406 1405 1404 1402 1401 1400 1399 1398 1396 1394 1392 1389 1387 1385 1383
1482 1481 1479 1477 1475 1473 1471 1469 1466 1464 1462 1460 1457 1455 1452 1449 1445 1442 1438 1435 1431 1426 1422 1418 1414 1410 1406 1403 1402 1401 1400 1399 1398 1397 1395 1395 1393 1392 1390 1388 1387 1385 1383 1380
1479 1477 1475 1473 1471 1469 1466 1464 1462 1460 1457 1455 1453 1450 1447 1444 1440 1437 1434 1430 1425 1421 1417 1412 1408 1404 1401 1399 1397 1396 1395 1394 1393 1393 1392 1391 1390 1388 1387 1385 1384 1382 1381 1378
1474 1473 1471 1469 1466 1463 1461 1459 1456 1454 1452 1449 1447 1445 1442 1439 1436 1432 1429 1425 1421 1416 1412 1408 1403 1400 1397 1395 1393 1392 1391 1390 1389 1388 1388 1387 1386 1385 1384 1383 1382 1380 1379 1377
1469 1467 1465 1463 1461 1459 1456 1453 1451 1449 1447 1444 1442 1439 1437 1434 1431 1427 1424 1420 1416 1412 1408 1404 1400 1397 1394 1392 1390 1389 1388 1387 1385 1385 1384 1384 1383 1382 1382 1381 1379 1378 1377 1376
1463 1461 1458 1456 1454 1452 1450 1448 1446 1443 1441 1439 1436 1434 1432 1429 1425 1422 1418 1415 1411 1407 1403 1400 1396 1393 1391 1389 1387 1386 1385 1383 1382 1382 1381 1381 1380 1380 1380 1379 1378 1377 1376 1375